RH
98 98 96 97 98 99 98 99 98 96 97 93 88 86 85 85 94 95 97 93 92 87 78 76 77 77 78 80 82 81 75 71 67 66 72 75 74 77 75 76 69 69 78
94 98 95 94 96 96 95 95 96 94 92 90 87 82 80 81 88 93 91 91 93 90 86 81 77 75 76 77 83 83 80 75 71 69 72 74 75 71 68 75 71 79 77
90 84 92 89 90 92 94 94 94 93 91 89 85 82 77 76 84 88 88 89 92 94 92 86 84 81 78 76 81 82 82 80 74 73 73 73 65 64 73 68 79 78 74
88 88 84 88 86 89 95 92 92 93 90 90 87 84 76 71 83 84 84 88 93 91 93 91 89 86 84 82 77 76 77 80 78 74 72 66 68 65 74 73 77 78 76
91 94 91 82 89 87 90 93 93 90 88 85 83 92 87 74 77 77 80 83 89 92 91 91 92 92 90 87 82 74 75 76 77 75 75 74 72 65 68 69 79 77 77
85 86 90 87 90 96 92 92 91 90 86 83 74 89 93 85 91 83 81 78 82 88 88 93 93 90 94 91 87 80 73 74 75 72 71 75 71 72 75 78 78 77 77
82 85 88 85 86 88 88 92 93 93 92 84 98 98 99 94 94 84 82 80 83 84 88 88 90 89 90 94 91 85 76 76 74 72 74 76 72 75 68 80 79 78 79
81 81 86 88 89 86 88 88 91 93 94 94 92 98 99 98 92 93 91 83 84 82 85 86 87 88 86 90 93 89 84 78 76 76 78 78 75 75 72 77 80 78 78
79 84 85 86 88 92 87 85 90 90 89 93 91 93 99 96 98 99 97 94 92 86 82 85 86 86 87 86 91 93 92 88 82 80 80 80 78 76 77 79 81 78 77
79 81 84 88 90 90 91 86 84 87 90 89 97 95 97 96 98 98 99 94 91 86 86 84 85 88 87 83 89 92 97 95 90 83 81 83 81 78 79 81 81 80 78
74 75 79 84 84 89 90 88 87 87 93 92 93 96 95 98 99 95 92 99 99 94 91 90 89 92 89 85 85 89 96 97 95 89 84 83 83 81 80 80 81 82 81
78 80 78 85 88 92 90 90 87 91 88 88 92 94 89 92 95 98 98 98 95 97 94 93 93 91 89 89 84 87 95 97 96 91 90 86 85 84 82 82 82 82 82
87 86 85 87 88 85 90 91 89 91 89 85 85 87 86 84 94 95 97 99 100 98 98 95 92 90 89 92 88 90 94 96 96 93 91 90 88 87 84 84 84 83 81
91 86 86 86 86 87 87 93 91 90 93 94 91 89 90 92 94 91 94 94 98 95 89 92 97 95 91 91 89 95 88 98 96 95 93 92 92 91 88 86 86 86 84
89 89 87 88 86 88 90 94 96 92 96 96 97 97 95 96 96 96 91 89 84 91 92 98 98 95 94 93 93 95 93 97 97 96 95 94 94 94 92 90 90 89 87
95 93 88 88 88 86 89 93 98 97 96 98 98 98 96 94 93 95 95 93 91 87 92 93 98 98 96 95 93 96 94 98 98 97 97 95 95 93 94 93 93 92 92
95 95 90 89 85 85 86 91 95 98 98 99 98 96 96 97 98 98 97 95 95 94 94 92 95 96 98 97 95 96 95 94 94 96 96 96 95 95 97 97 96 96 94
95 96 93 88 86 87 87 88 90 91 98 98 99 98 97 94 95 93 93 92 96 92 91 91 94 98 95 94 92 98 97 96 93 98 96 96 95 96 98 99 100 99 97
96 95 95 94 89 93 93 88 89 90 92 92 93 95 97 97 97 98 98 97 97 96 96 94 92 97 96 99 98 98 98 97 96 96 98 96 95 95 97 99 100 100 99
96 96 95 95 96 95 95 90 90 92 92 91 92 93 94 96 97 97 97 98 97 99 99 99 97 99 100 100 99 99 99 100 99 100 99 97 95 95 95 97 99 99 99
96 96 96 96 96 96 96 100 98 97 92 91 89 86 93 94 96 97 93 97 97 98 99 99 99 100 100 100 99 99 98 100 100 100 99 99 98 98 96 98 95 98 99
98 97 96 97 97 94 99 97 99 99 97 98 94 90 84 90 92 93 93 94 99 98 98 100 100 100 99 99 100 100 100 100 100 100 100 100 99 99 96 96 94 99 100
76 92 96 97 96 97 92 88 88 97 95 90 94 88 84 83 91 88 89 90 91 94 100 99 99 99 99 98 98 100 100 100 98 100 100 100 100 100 100 100 99 100 100
71 72 77 78 86 84 88 79 83 82 88 91 92 91 92 96 88 85 91 93 94 91 93 93 98 97 98 98 98 95 96 100 100 100 100 100 100 100 100 100 98 98 98
72 74 72 75 75 76 76 76 82 81 84 90 85 89 89 93 83 83 90 96 93 97 93 92 94 95 97 99 99 100 100 100 100 100 100 100 100 100 100 100 100 97 98
71 72 75 76 74 76 74 75 74 86 87 87 85 85 82 85 83 82 90 94 97 96 98 96 96 96 97 98 100 99 99 99 100 100 100 100 99 99 100 99 100 100 100
Wind_Speed
5 4 6 6 6 6 7 6 6 6 7 8 7 7 6 7 6 4 4 13 13 15 18 19 19 18 18 18 16 16 17 17 17 16 15 15 14 14 13 12 13 14 12
7 6 6 7 7 6 7 7 7 8 8 7 9 9 8 8 8 8 6 8 14 14 16 19 21 19 19 19 17 17 17 16 16 17 16 15 15 14 14 12 13 12 12
11 10 6 7 8 8 9 7 7 6 6 6 10 9 8 9 10 9 9 7 9 14 15 17 17 18 18 19 18 18 18 18 17 16 16 17 15 16 14 16 14 13 13
12 9 8 8 8 8 9 8 8 7 7 7 7 8 8 8 11 12 9 9 8 9 12 14 15 17 18 20 22 21 20 19 18 19 18 17 16 17 15 16 15 15 14
11 9 8 9 8 9 9 9 8 10 9 9 8 6 7 8 11 11 13 12 13 10 9 14 15 15 16 19 21 22 21 21 21 21 20 19 17 19 18 18 15 15 15
18 15 11 11 9 7 8 8 11 10 10 11 10 8 7 7 5 9 13 11 11 13 12 11 10 10 15 18 21 22 22 22 22 23 23 21 20 19 17 16 17 17 17
16 15 11 15 12 12 13 12 11 12 11 10 4 3 4 8 6 8 9 10 11 12 11 11 9 8 9 19 20 23 24 24 24 24 23 22 22 20 21 19 18 18 17
17 14 14 13 14 14 15 15 14 11 10 9 10 2 5 4 8 7 7 9 12 10 12 12 12 12 10 10 14 22 24 25 26 25 23 23 22 22 21 20 20 20 20
15 17 16 14 15 13 15 16 16 18 14 11 16 6 2 6 3 3 9 9 10 9 10 12 13 13 13 11 13 17 19 21 23 25 24 24 24 23 23 22 22 22 21
16 17 17 15 15 12 15 17 14 16 14 13 6 8 4 3 4 3 1 12 11 12 12 10 11 12 12 11 17 19 19 19 19 23 25 26 26 25 25 25 23 22 22
17 18 18 18 18 14 15 19 16 15 13 16 12 4 5 5 3 8 15 6 4 7 7 9 10 9 12 12 11 15 20 22 20 20 23 26 27 26 26 25 25 24 23
14 16 18 18 18 15 17 15 17 18 19 13 11 11 13 9 10 5 2 2 8 5 7 8 9 9 10 11 15 19 22 23 24 23 21 25 27 27 27 26 26 26 25
14 16 20 19 17 19 19 17 17 15 14 11 11 9 11 13 6 5 4 0 3 3 4 8 10 10 10 10 13 19 22 24 25 26 23 24 25 27 27 27 27 27 26
13 18 18 20 21 21 20 18 13 12 9 9 11 11 8 9 8 9 8 8 7 11 10 9 7 10 11 11 14 19 15 22 23 24 24 23 23 25 26 27 26 26 25
12 17 18 20 21 21 20 18 13 10 8 9 10 10 10 8 7 7 7 8 8 8 10 5 7 11 9 8 10 10 15 18 24 24 24 23 24 24 26 26 25 25 25
15 17 17 18 18 19 20 16 10 7 8 6 7 10 9 7 8 7 7 7 7 8 7 7 8 5 11 10 11 11 14 16 23 24 24 24 24 26 25 25 25 25 24
17 17 17 16 13 16 20 20 9 8 11 8 6 8 8 6 5 5 6 6 7 8 9 5 5 6 7 9 9 11 11 12 10 24 25 25 25 24 24 24 24 24 24
16 15 16 14 12 15 18 17 18 19 2 8 5 5 5 5 9 10 8 11 9 9 8 8 5 5 9 10 11 11 10 9 12 15 22 22 23 24 23 24 24 24 23
16 15 15 15 14 15 15 17 15 16 13 7 7 8 5 3 3 3 5 6 7 5 7 5 4 3 7 3 7 7 9 10 8 11 20 22 23 24 24 25 25 25 25
16 14 15 13 11 13 16 14 16 17 15 9 10 12 14 12 9 7 6 6 6 2 5 5 6 4 2 2 4 6 5 3 6 4 8 13 19 22 25 25 26 27 26
14 14 14 12 12 11 12 16 13 12 13 14 13 12 13 13 14 14 7 7 7 4 3 2 5 2 3 3 5 4 9 5 6 4 6 7 7 8 11 15 20 25 25
11 12 14 13 10 10 21 24 17 9 12 14 12 10 9 14 13 14 15 10 6 4 3 2 1 4 5 4 3 5 3 3 4 4 6 6 5 8 9 10 20 18 20
13 12 12 13 13 11 24 26 24 14 12 12 7 8 11 10 13 11 14 12 8 8 4 4 5 4 3 6 5 5 7 6 6 1 5 5 2 8 3 4 7 14 17
13 12 12 13 12 12 25 28 27 12 11 12 16 16 11 8 12 13 10 9 7 6 5 4 7 8 8 10 8 6 9 3 3 1 3 4 1 3 2 1 4 7 10
11 11 11 13 13 13 25 26 20 11 10 12 9 8 9 7 18 18 9 8 10 5 4 7 11 13 15 16 11 1 2 4 3 3 2 4 2 2 1 1 2 4 8
11 9 10 10 15 14 24 25 20 8 11 9 7 8 13 13 18 17 7 7 8 7 9 10 8 9 8 9 12 7 5 8 3 0 5 5 4 5 2 2 3 2 3
Wind_Direction
243 230 206 199 205 194 195 195 199 203 205 209 213 212 190 199 192 176 177 191 193 194 187 188 182 183 185 179 176 172 171 170 166 162 161 156 161 154 159 157 166 164 155
215 220 219 209 208 206 203 197 199 205 210 206 216 215 213 188 189 182 184 191 196 198 186 189 189 190 193 187 180 177 177 176 177 170 169 163 165 170 174 170 170 163 168
217 220 222 224 210 200 206 205 207 214 219 215 216 216 212 188 186 189 182 191 196 193 187 196 195 196 193 193 188 183 182 182 178 174 170 169 181 186 178 182 167 171 174
235 224 219 218 220 206 198 210 198 212 224 219 217 221 216 195 187 185 191 184 186 192 197 200 197 199 196 193 193 194 190 186 183 179 176 188 187 195 189 186 182 176 179
281 243 236 239 214 206 206 208 212 200 207 222 217 212 213 198 194 184 192 194 189 186 189 205 197 196 201 195 197 201 198 195 188 185 183 179 188 196 196 193 183 187 186
333 327 290 249 226 211 215 207 223 216 211 208 218 209 218 214 195 196 191 191 195 193 190 190 200 205 199 202 199 202 205 200 198 193 192 186 188 194 197 193 190 196 196
332 326 321 306 258 233 230 209 215 220 224 214 148 257 249 233 196 203 200 195 196 193 196 191 190 199 205 204 203 203 206 204 204 204 198 194 191 191 204 196 193 202 200
325 318 311 303 307 280 236 231 214 220 226 211 209 175 204 252 236 208 204 207 198 199 191 196 194 195 197 202 206 205 209 211 206 203 200 197 197 191 201 202 196 204 204
321 314 308 308 295 296 272 247 228 216 221 224 215 175 160 222 183 227 219 210 208 199 201 194 196 198 194 197 200 204 204 210 213 205 200 198 199 197 196 203 199 203 209
323 318 310 305 296 282 285 261 244 234 223 217 223 220 147 169 162 265 239 220 207 208 202 198 199 202 203 202 197 199 197 203 209 211 203 199 200 200 199 199 200 203 211
322 320 321 315 309 312 289 277 253 255 222 223 232 211 218 200 177 227 225 203 212 221 216 206 208 205 206 203 205 205 195 197 205 208 205 201 201 203 202 204 202 204 208
317 319 318 314 301 294 288 284 255 236 255 228 203 214 220 209 205 208 184 167 209 210 222 223 226 209 208 205 210 205 197 199 202 206 201 202 201 203 204 205 205 206 208
315 316 316 315 308 301 292 277 270 239 228 233 220 215 214 220 177 181 170 156 304 308 248 227 215 216 214 208 213 206 203 201 200 203 203 200 200 203 205 205 207 209 211
308 311 310 309 307 301 298 272 265 243 214 224 215 213 208 206 186 190 162 174 183 218 229 234 220 215 214 207 213 202 205 199 201 202 203 199 197 200 203 205 206 209 210
306 309 309 307 308 301 298 275 254 229 199 194 206 191 180 179 175 179 191 190 191 212 218 205 219 210 210 212 217 199 217 204 204 201 202 200 198 200 200 202 204 207 209
312 312 312 308 317 342 331 285 249 218 197 192 181 170 176 182 181 183 196 213 216 228 228 187 207 192 195 200 211 200 210 211 204 207 202 200 199 202 198 201 201 204 206
318 316 318 314 337 353 350 350 307 221 187 167 149 166 170 155 163 196 208 210 218 213 223 237 197 203 191 209 209 203 208 209 201 209 203 200 200 201 198 197 200 201 202
318 318 323 325 352 8 1 342 3 343 184 149 140 143 178 188 216 221 223 221 219 213 212 229 193 200 204 211 219 201 202 205 213 199 211 203 203 203 199 197 197 200 201
326 326 332 339 5 13 10 345 8 344 345 39 68 68 70 78 226 217 208 220 219 217 219 207 214 194 213 201 211 216 207 212 204 211 207 205 204 203 203 202 201 201 201
335 338 343 338 6 9 13 351 10 347 334 0 52 61 61 46 45 35 51 37 26 296 189 202 222 194 187 241 221 214 224 234 204 192 203 208 208 211 209 204 206 205 205
343 345 344 348 7 17 5 7 357 358 350 23 28 41 67 64 62 50 39 13 23 2 324 243 222 132 180 199 196 203 218 203 227 163 209 205 202 204 215 215 220 213 207
337 341 351 360 11 19 16 16 10 2 5 13 10 29 30 40 47 49 38 20 2 3 319 294 245 197 203 199 198 199 200 152 241 200 173 213 186 196 213 207 206 203 200
353 355 356 2 358 6 16 13 18 29 356 5 2 30 22 25 29 22 16 357 354 337 292 311 289 284 263 213 195 215 200 196 210 273 163 229 168 213 158 153 164 204 203
355 355 360 2 3 354 9 13 9 15 9 336 18 14 359 6 11 11 0 338 334 337 338 327 307 301 305 314 295 234 219 195 36 63 105 193 106 230 115 55 178 219 211
352 353 355 356 1 359 3 5 9 6 346 5 10 346 351 13 355 1 349 328 332 315 292 303 285 282 288 288 269 258 170 120 229 246 194 137 168 136 258 210 189 200 217
349 347 347 358 359 355 358 1 7 351 352 350 349 354 341 335 342 352 349 327 319 326 328 326 320 310 296 291 284 244 208 211 153 85 199 181 152 156 221 200 189 216 133